Location: Brompton
(51.4000°N, 0.5333°E)
Time: 09:35:39
(UTC+00:00)

Cosmos 1707 Rocket - Pass Details

Date: 11 May 2021
Orbit: 606 x 631 km, 82.5° (Epoch: 12 June)

Event Time Altitude Azimuth Distance (km) Brightness Sun altitude
Exits shadow 22:32:59 36° 186° (S) 974 4.1 -18.2°
Maximum altitude 22:34:44 86° 101° (ESE) 627 3.5 -18.3°
Drops below altitude 10° 22:39:11 10° 11° (NNE) 2,003 7.1 -18.6°
Sets 22:41:26 0° 11° (NNE) 2,918 8.1 -18.7°
